Tracking 19562 objects as of 22-Mar-2019
HD Live streaming from Space Station
objects crossing your sky now

ORBCOMM FM 111

Track ORBCOMM FM 111 now!
10-day predictions
ORBCOMM FM 111 is classified as:


NORAD ID: 40089
Int'l Code: 2014-040D
Perigee: 620.5 km
Apogee: 670.6 km
Inclination: 47.0 °
Period: 97.5 minutes
Semi major axis: 7016 km
RCS: Unknown
Launch date: July 14, 2014
Source: United States (US)
Launch site: AIR FORCE EASTERN TEST RANGE (AFETR)
aabbcc
Your satellite tracking list
Your tracking list is empty




NASA's NSSDC Master Catalog

Two Line Element Set (TLE):
1 40089U 14040D   19080.92703191 -.00000036 +00000-0 +23824-4 0  9993
2 40089 047.0082 019.1512 0035701 196.8147 163.1565 14.77119116252784
Source of the keplerian elements: AFSPC